Timeline UpdatesTrip UpdatesNews PostsPvt Posts♥♥Travel TipsAdmin PostsConv PostsFollowed PostsChat RequestsBlog PostsPNR Posts

Disclaimer
Search
 
 
Fri Oct 31, 2014 09:34:25 ISTHomeTrainsΣChainsAtlasPNRForumGalleryNewsFAQTripsMembersLoginFeedback
No Recent News for this Train
Other Trains in the News **new
Latest...
.
Sat Feb 02, 2013 (04:10PM)
⇐ Return Journey: Train# 51187

51188/Katni - Bhusaval Passenger (UnReserved)

Time-Table HAS CHANGED.
Sep 05 2014 (2:13PM)
Change Departure Station:
Change Arrival Station:
Post a Train Travel TipPost a Train Travel Tip **new
Post a Comment/Question/Picture/VideoPost a Comment/Question/Picture/Video
Pantry/Catering
✕ NO Pantry Car
✕ NO Catering
RSA - Rake Sharing
Rake/Coach Composition
Loco
KTE-ET: KTE/ET WDM-3A ET-BSL: BSL/ET WAP-4
News    PNR    Forum    Time-Table    Availability    Fare Chart    Map    Arr/Dep History    Trips    Gallery    ΣChains    X/O    Timeline    
Travel Time: 7h 0m    23 halts    Distance: 199 km    Avg Speed: 28 km/hr
Type: Passenger
Zone: CR/Central
Departs @ 10:00 (Avg 3h 41m late)
Platform# 1
SMTWTFS
Khirkiya/KKN 
Arrives @ 17:00 (Avg 2h 53m late)
Platform# 6
SMTWTFS
Bhusaval Junction/BSL 

23 halts. 24 intermediate Stations between Khirkiya and Bhusaval Junction

Show ALL intermediate Stations  Show Old Time-Table

#TrkCodeStation NameX/OArrivesAvgDepartsAvgHaltPFDay#KmSpeedElevZoneAddress
1%==|KTEKatni Junction (6)  -22:20+4651-443.232387mWCRKatni, Madhya Pradesh
2|==|MDRRMadhavnagar Road (2)  22:30-22:31-1m--1-437.947398mWCRMadhavnagar, Madhya Pradesh
3|==|NWRNiwar (2)X  22:41+1:3122:42+1:421m--1-430.052412mWCRPipraundh, Madhya Pradesh
4|==|SNRRSansarpur (2)X  22:51-22:52-1m--1-422.259436mWCRNational Highway 7, Madhya Pradesh
5|==|SBDSleemanabad Road (2)X  22:59+4623:00+471m--1-415.357434mWCRSleemanabad, Madhya Pradesh
6|==|DDCEDundi (2)  23:10+1:3823:11+1:481m--1-405.860415mWCRDundi, Madhya Pradesh
7|==|SHRSihora Road (2)X  23:26+1:3423:28+1:422m--1-390.961388mWCRJabalpur, Madhya Pradesh
8|==|GSPRGosalpur (2)XO  23:39+1:5523:40+2:001m--1-379.857396mWCRJabalpur, Madhya Pradesh
9|==|DOEDeori (2)  23:51+1:5923:52+2:001m--1-369.348392mWCRJabalpur, Madhya Pradesh
10|==|ADTLAdhartal (2)  00:03+1:5700:04+2:071m--2-360.582393mWCRJabalpur, Madhya Pradesh
11|==|JBPJabalpur Junction (4)X  00:20 00:10+3300:30 00:20+4010m12-352.314416mWCRJabalpur, Madhya Pradesh
12|==|MMLMadan Mahal (3)  00:34+1:4500:36+1:462m12-349.056428mWCRJabalpur, Madhya Pradesh
13|==|BRGTBheraghat (2)  00:50+2:4500:51+2:511m--2-335.952389mWCRBheraghat, Madhya Pradesh
14|==|BHTNBhitoni (2)X  01:04 01:06+2:4901:05 01:08+2:491 2m--2-322.769377mWCRJabalpur, Madhya Pradesh
15|==|BMRBikrampur (2)  01:17 01:18+2:4801:18 01:20+2:531 2m--2-311.259353mWCRBikrampur Dist Narsingpur., Madhya Pradesh
16|==|SRIDShridham (3)X  01:29 01:32+1:2901:31 01:34+1:312m32-299.466373mWCRShridham, Madhya Pradesh
17|==!KKBKarak Bel (2)  01:48+3:0301:49+3:041m--2-284.029375mWCRKarak Bel, Madhya Pradesh
18|==!BELDBelkhera (2)  01:58+2:3101:59+2:351m--2-279.633367mWCRState Highway 22, Madhya Pradesh
19!==|GPCGhatpindrai (2)O  02:09+3:0202:10+3:051m--2-274.135366mWCRGhatpindra, Madhya Pradesh
20|==|NUNarsinghpur (2)X  02:20+1:4702:22+1:552m22-268.368365mWCRNarsimhapur, Madhya Pradesh
21|==|KYKareli (2)X  02:36+2:1102:37+2:121m22-252.447361mWCRKareli, Madhya Pradesh
22|==|KFYKarapgaon (2)X  02:48-02:49-1m--2-243.847363mWCRNational Highway 26, Madhya Pradesh
23|==|BNEBohani (2)XO  02:58+3:1302:59+3:141m--2-236.978361mWCRNarsinghpur, Madhya Pradesh
24|==|GARGadarwara (2)XO  03:09+3:1603:10+3:191m22-223.956352mWCRNarsinghpur, Madhya Pradesh
25|==|SCKRSalichauka Road (2)X  03:25+3:1603:26+3:171m--2-210.061355mWCRGadarwara, Madhya Pradesh
26|==|JHTJunehta (2)  03:36-03:37-1m--2-199.951353mWCRState Highway 22, Madhya Pradesh
27|==|BKHBankhedi (2)X  03:44+3:1603:46+3:242m--2-194.069351mWCRBankheri, Madhya Pradesh
28|==|PPIPipariya (3)X  04:03+3:2304:05+3:332m32-174.640338mWCRPiparia, Madhya Pradesh
29|==|SXFSobhapur (2)  04:18-04:19-1m--2-165.945338mWCRState Highway 22, Madhya Pradesh
30|==|SGPSohagpur (2)X  04:31+3:2504:33+3:292m--2-156.943340mWCRSohagpur, Madhya Pradesh
31|==|GMDGuramkhedi (2)  04:47+3:2404:48+3:241m--2-146.849337mWCRGuramkhedi, Madhya Pradesh
32|=-|BGTABagratawa (2)O  05:04+3:1805:05+3:221m--2-133.829338mWCRBagra Tawa, Madhya Pradesh
33|-=|SQLSontalai (2)X  05:19+3:2305:20+3:391m--2-126.927329mWCRItarsi, Madhya Pradesh
34|==|GROGurra (2)X  05:40+3:2505:41+3:321m--2-117.916327mWCRItarsi, Madhya Pradesh
35|==|ETItarsi Junction (7)  06:20+1:3706:45+1:3725m--2-107.357329mWCRItarsi 461111, Madhya Pradesh
36/==/DRADularia (2)  06:58+3:5006:59+3:551m--2-95.142318mWCRItarsi, Madhya Pradesh
37/==/KTZKhutwansa (2)X  07:07-07:08-1m--2-89.555325mWCRSH 15, Madhya Pradesh
38/==/DKIDharamkundi (2)O  07:17 07:16+3:5107:18+3:511 2m--2-82.131314mWCRSH 15, Madhya Pradesh
39/==/BPFBanapura (2)  07:34+3:1507:35+3:221m--2-73.949314mWCRBanapura, Madhya Pradesh
40/==/BIFBhaironpur (2)O  07:44+3:2107:45+3:221m--2-66.649322mWCRSH 15, Madhya Pradesh
41/==/PGLPagdhal (2)X  07:54+3:4607:55+3:551m--2-59.341317mWCRPagdhal, Madhya Pradesh
42/==/CGOChhidgaon (2)X  08:01-08:02-1m--2-55.126309mWCRHarda, Madhya Pradesh
43/==/TBNTimarni (2)  08:24+3:5708:25+3:581m--2-45.647308mWCRTimarni, Madhya Pradesh
44/==/CRKCharkhera (2)XO  08:34+3:3708:35+3:431m--2-38.623298mWCRBarkalan, Madhya Pradesh
45/==/HDHarda (3)X  08:53+3:5208:55+3:532m--2-31.574289mWCRHarda, Madhya Pradesh
46/==/PALPalasner (2)  09:02 09:01+3:3509:03+3:351 2m--2-24.144296mWCRHarda, Madhya Pradesh
47/==/MUOMasangaon (2)XO  09:12 09:11+3:3309:13+3:331 2m--2-18.212303mWCRSH 15, Madhya Pradesh
48/==/BRIBhiringi (2)  09:39 09:38+3:1609:40+3:231 2m--2-13.0133294mWCRSH 15, Madhya Pradesh
49/==/KROKurawan (2)X  09:44 09:43-09:45-1 2m--2-6.429297mWCRSH 15, Madhya Pradesh
50/==/KKNKhirkiya (2)»O  09:58+3:4110:00+3:412m120.041281mWCRSH 15, Madhya Pradesh
51/==/DRHIDagarhkeri (2)XO  10:17 10:16+3:1410:18+3:201 2m--210.921274mWCRState Highway 15, Madhya Pradesh
52/==/BRUDBarud (2)X  10:47 10:46+3:0110:48+3:101 2m--220.576273mWCRKhandwa, Madhya Pradesh
53/==/CAERChhanera (2)XO  10:56+3:1210:58+3:152m--230.723283mWCRChhanera, Madhya Pradesh
54/==/CKKDCharkheda Khurd (2)  11:17 11:16+3:0511:18+3:051 2m--237.524274mWCRKhandwa, Madhya Pradesh
55/==/SGBJSurgaon Banjari (2)  11:47 11:46+2:4711:48+3:001 2m--248.671298mWCRKhandwa, Madhya Pradesh
56/==/TLVTalvadiya (2)  11:58+3:0212:00+3:102m--260.463308mWCRKhandwa, Madhya Pradesh
57/==/MTAMathela (2)XO  12:09 12:08+3:1112:10+3:111 2m--268.76322mWCRKhandwa, Madhya Pradesh
58/==/KNWKhandwa Junction (5)  13:20+2:4513:30+2:4610m--276.144310mCRKhandwa, Madhya Pradesh
59/==/BRGJBargaon Gujar (2)  13:37+2:0613:38+2:061m--281.260316mCRKhandwa, Madhya Pradesh
60/==/BMABagmar (2)X  13:44+2:0913:45+2:101m--287.266335mCRState Highway 27, Madhya Pradesh
61/==/KDKKohdad (2)X  13:49+2:1313:50+2:131m--291.657344mCRState Highway 15, Madhya Pradesh
62/==/DGNDongargaon (2)  13:58+2:1313:59+2:281m1299.258373mCRBorgaon, Madhya Pradesh
63/==/SXASagphata (2)  14:07+2:2914:08+2:291m--2106.951350mCRKhandwa, Madhya Pradesh
64/==/MWAMandwa (2)X  14:15+2:2914:16+2:291m--2112.944317mCRState Highway 27, Madhya Pradesh
65/==/NPNRNepanagar (2)  14:24+3:2514:26+3:252m--2118.753289mCRState Highway 27, Madhya Pradesh
66/==/CDIChandni (2)X  14:34+2:2914:35+2:301m--2125.877276mCRNepanagar Rd, Madhya Pradesh
67/==/AGQAsirgarh Road (2)  14:43+2:3014:44+2:391m--2136.067259mCRState Highway 27, Madhya Pradesh
68/==/BAUBurhanpur (2)X  14:52+3:2014:55+3:223m12145.062269mCRBurhanpur, Madhya Pradesh
69/==/WGAWaghodaX  15:05+2:4915:06+2:541m--2155.260259mCRChorwad, Maharashtra
70/==/RVRaver (2)X  15:16+2:2915:18+2:282m--2165.268242mCRJalgaon, Maharashtra
71/==/NBNimbhora (2)X  15:27+2:0315:28+2:031m--2175.358229mCRJalgaon, Maharashtra
72/==/SAVSavda (2)  15:37+1:1415:38+1:141m--2184.058220mCRSavda, Maharashtra
73/==/DSKDuskheda (2)X  15:47+1:5115:48+2:021m--2192.76213mCRDuskheda Station, Maharashtra
74/==/BSLBhusaval Junction (8)•  17:00+2:53-62199.5-208mCRBhusaval 425201, Maharashtra
Scroll to Top
Scroll to Bottom